Regional Weather Roundup
Issued by NWS Charleston, WV

Home | Current Version | Previous Version | Text Only | Print | Product List | Glossary Off
Versions: 1 2 3 4 5 6 7 8 9 10 11 12 13 14 15 16 17 18 19 20 21 22 23 24 25 26 27 28 29 30 31 32 33 34 35 36 37 38 39 40 41 42 43 44 45 46 47 48 49 50

000
ASUS41 KRLX 231110
RWRRLX
West Virginia Regional Weather Roundup
National Weather Service Charleston WV
600 AM EST SUN NOV 23 2014

Note: "fair" indicates few or no clouds below 12,000 feet with no
significant weather and/or obstructions to visibility.

WVZ003-231200-
Northern Panhandle of West Virginia

CITY           SKY/WX    TMP DP  RH WIND       PRES   REMARKS
WHEELING       MOCLDY    49  25  39 S8        30.08F
$$

WVZ009-231200-
Northwest West Virginia

CITY           SKY/WX    TMP DP  RH WIND       PRES   REMARKS
PARKERSBURG    CLOUDY    45  24  43 S5        30.12S
$$

WVZ006-231200-
Western West Virginia

CITY           SKY/WX    TMP DP  RH WIND       PRES   REMARKS
HUNTINGTON     CLOUDY    46  29  51 E5        30.07F
$$

WVZ015-231200-
West Central West Virginia

CITY           SKY/WX    TMP DP  RH WIND       PRES   REMARKS
CHARLESTON     MOCLDY    40  32  73 CALM      30.10S
$$

WVZ022-031-231200-
North Central West Virginia

CITY           SKY/WX    TMP DP  RH WIND       PRES   REMARKS
CLARKSBURG     PTCLDY    38  26  62 CALM      30.12S
MORGANTOWN     MOCLDY    52  24  33 S5        30.13R
$$

WVZ025-035-042-045-231200-
Southern West Virginia

CITY           SKY/WX    TMP DP  RH WIND       PRES   REMARKS
BECKLEY        PTCLDY    43  21  41 SE8       30.16S
LOGAN          PTSUNNY   52  30  43 S6        30.11S
BLUEFIELD      CLOUDY    45  27  49 SE3       30.17F
LEWISBURG      PTCLDY    29  24  79 CALM      30.21S
$$

WVZ047-231200-
Northern Mountains of West Virginia

CITY           SKY/WX    TMP DP  RH WIND       PRES   REMARKS
ELKINS         MOCLDY    29  28  96 CALM      30.17S
$$

WVZ052-231200-
Eastern Panhandle of West Virginia

CITY           SKY/WX    TMP DP  RH WIND       PRES   REMARKS
MARTINSBURG    MOCLDY    41  19  41 S5        30.17R
PETERSBURG     PTCLDY    35  25  65 CALM      30.16R
$$


USA.gov is the U.S. government's official web portal to all federal, state and local government web resources and services.